CHIBUOYS 000
TTAA00 KLOT 282100

MARINE OBSERVATIONS FOR LAKE MICHIGAN
NATIONAL WEATHER SERVICE CHICAGO/ROMEOVILLE IL
300 PM CST SAT FEB 28 2015


...COASTAL INLAND STATIONS ETC...
  
CITY           SKY/WX    TMP DP  RH WIND       PRES   REMARKS
GARY AIRPORT   MOSUNNY   23  -4  30 SE5       30.61F WCI  17          
CHICAGO MIDWAY MOSUNNY   23   2  40 S7        30.59F WCI  15          
WHEELING       SUNNY     20  -2  38 S5        30.60F WCI  13          
WAUKEGAN       SUNNY     18   6  59 SE6       30.57F WCI  10          
KENOSHA        SUNNY     19   0  43 S3        30.57F                  
RACINE         SUNNY     18   4  54 SE6       30.60F WCI  10          
MILWAUKEE      MOSUNNY   17  -1  45 S9        30.58F WCI   6          
BENTON HARBOR  SUNNY     19   1  45 SE6       30.61F WCI  11          

...BUOY REPORTS...
  
STATION/POSITION SKY/WX   TEMP    WIND        VSBY  WAVE
                          AIR SEA DIR/SP/G          HT/PER
                          (F)     (DEG/KT/KT) (MI)  (FT/S)
45002 45.3N 86.4 NOT AVBL
45007 42.7N 87.0 NOT AVBL
45170 41.8N 87.0 NOT AVBL
45029 42.9N 86.3 NOT AVBL
45161 43.2N 86.4 NOT AVBL
45024 44.0N 86.6 NOT AVBL

...LAKESIDE REPORTS...
  
STATION/POSITION SKY/WX   TEMP    WIND        VSBY  WAVE
                          AIR SEA DIR/SP/G          HT/PER
                          (F)     (DEG/KT/KT) (MI)  (FT/S)
WAUKEGAN HARBOR            22     140/  8/ 10
CHICAGO CRIB               18     150/  9/ 13
BURNHAM HARBOR             21     140/  6/ 11
CALUMET                    21     150/  6/  9
BURNS HARBOR     NOT AVBL
MICHIGAN CITY              19     170/  7/  9
ST. JOSEPH                 23     190/  2/  9
SOUTH HAVEN      NOT AVBL
HOLLAND                    17     200/  7/  9
MUSKEGON                   20     210/  8/  9
LUDINGTON                  18     210/ 12/ 16
BIG SABLE LIGHT            19     190/  9/ 19
MANISTEE HARBOR            20     220/ 20/ 23
GRAND TRAVERSE L           21     250/ 16/ 20
MACKINAW CITY              22     250/ 10/ 16
NAUBINWAY                  17     210/ 14/ 16
PORT INLAND                18     210/ 16/ 20
FAIRPORT                   20     220/  9/ 12
NORTHPORT PIER             22     160/  7/ 14
SISTER BAY                 31     270/  9/ 11
ALGOMA           NOT AVBL
KEWAUNEE                   19     190/ 14/ 16
SHEBOYGAN                  17     170/ 15/ 17
PORT WASHINGTON            20     160/ 11/ 16
MILWAUKEE                  17     190/  9/ 11
KENOSHA                    19     160/ 10/ 12
$$
  

USA.gov is the U.S. government's official web portal to all federal, state and local government web resources and services.
  • Web Site Owner:
  • National Weather Service
  • Chicago, IL Weather Forecast Office
  • 333 West University Drive
  • Romeoville, IL 60446
  • 815-834-1435 8am-8pm
  • Page Author: LOT Webmaster
  • Web Master's E-mail: w-lot.webmaster@noaa.gov
  • Page last modified: 2-Sep-2010 4:41 PM UTC